Date,TemperatureHighF,TemperatureAvgF,TemperatureLowF,DewpointHighF,DewpointAvgF,DewpointLowF,HumidityHigh,HumidityAvg,HumidityLow,PressureMaxIn,PressureMinIn,WindSpeedMaxMPH,WindSpeedAvgMPH,GustSpeedMaxMPH,PrecipitationSumIn
2013-1-1,16,11,6,12,7,1,85,82,79,0.00,40.00,4,2,7,0.00
2013-1-2,24,12,4,15,6,-1,84,77,64,0.00,40.00,6,2,7,0.13
2013-1-3,28,16,9,5,-1,-9,75,47,33,0.00,40.00,7,4,11,0.01
2013-1-4,29,17,9,6,2,-3,73,53,33,0.00,40.00,9,3,12,0.02
2013-1-5,32,19,9,11,6,3,78,58,38,0.00,40.00,5,3,9,0.01
2013-1-6,41,32,22,5,1,-5,42,27,17,0.00,40.00,9,6,15,0.01
2013-1-7,47,32,26,7,-1,-6,35,24,17,0.00,40.00,8,4,12,0.00
2013-1-8,41,30,22,13,7,-1,48,37,27,0.00,40.00,8,4,10,0.00
2013-1-9,47,35,28,13,8,-1,45,32,21,0.00,40.00,8,4,19,0.00
2013-1-10,39,30,25,22,10,1,89,45,28,0.00,40.00,11,7,21,0.00
2013-1-11,27,13,3,19,5,-7,89,72,57,0.00,40.00,17,10,38,0.00
2013-1-12,18,5,-2,1,-5,-9,77,63,41,0.00,40.00,8,4,14,0.00
2013-1-13,13,4,-1,6,-2,-7,83,74,61,0.00,40.00,9,5,12,0.00
2013-1-14,18,8,0,9,2,-5,81,77,60,0.00,40.00,7,4,13,0.00
2013-1-15,18,6,-3,8,-2,-9,80,68,52,0.00,40.00,6,2,10,0.07
2013-1-16,31,16,4,9,1,-5,68,52,35,0.00,40.00,6,3,9,0.06
2013-1-17,42,32,22,17,12,6,57,45,31,0.00,40.00,8,3,11,0.02
2013-1-18,44,32,25,17,14,12,60,49,32,0.00,40.00,7,2,11,0.00
2013-1-19,46,31,22,19,13,-4,63,49,21,0.00,40.00,7,4,11,0.00
2013-1-20,40,32,25,15,9,2,53,39,22,0.00,40.00,6,4,11,0.00
2013-1-21,42,32,23,15,11,6,52,42,30,0.00,40.00,6,4,10,0.00
2013-1-22,48,35,25,18,14,9,56,42,30,0.00,40.00,5,3,8,0.00
2013-1-23,49,38,32,15,7,-5,38,27,17,0.00,40.00,6,3,8,0.00
2013-1-24,49,38,32,26,13,0,70,38,20,0.00,40.00,10,6,16,0.00
2013-1-25,41,34,30,33,29,23,91,83,69,0.00,40.00,7,3,12,0.00
2013-1-26,35,33,32,34,32,29,98,94,86,0.00,40.00,16,7,25,0.90
2013-1-27,35,32,31,34,32,30,98,97,91,0.00,40.00,13,5,24,0.70
2013-1-28,32,27,19,32,26,17,98,95,91,0.00,40.00,15,10,25,0.09
2013-1-29,20,14,8,17,10,1,91,83,70,0.00,40.00,15,8,27,0.00
2013-1-30,29,15,5,17,7,-3,80,68,57,0.00,40.00,10,6,14,0.27
2013-1-31,38,27,14,21,18,11,90,72,47,0.00,40.00,8,4,13,0.15
2013-2-1,40,28,20,26,21,18,93,75,45,0.00,40.00,8,3,11,0.02
2013-2-2,44,31,22,25,21,17,88,66,44,0.00,40.00,7,3,11,0.01
2013-2-3,45,33,26,23,18,13,89,55,36,0.00,40.00,9,4,12,0.00
2013-2-4,40,28,22,29,22,19,93,81,62,0.00,40.00,7,4,12,0.00
2013-2-5,49,33,24,26,22,18,94,66,36,0.00,40.00,8,4,12,0.01
2013-2-6,44,34,29,24,20,17,71,58,39,0.00,40.00,10,6,17,0.01
2013-2-7,45,32,24,21,16,11,83,54,28,0.00,40.00,8,5,14,0.00
2013-2-8,43,33,27,22,16,11,61,49,29,0.00,40.00,18,12,31,0.00
2013-2-9,29,21,15,20,14,7,89,74,41,0.00,40.00,14,7,23,0.00
2013-2-10,25,18,15,22,15,12,88,87,86,0.00,40.00,12,7,21,0.00
2013-2-11,26,17,12,23,14,8,88,87,85,0.00,40.00,9,6,16,0.07
2013-2-12,25,15,8,17,9,2,85,78,65,0.00,40.00,11,4,14,0.17
2013-2-13,35,21,11,25,14,7,84,76,64,0.00,40.00,6,3,11,0.07
2013-2-14,40,26,17,24,16,13,87,68,49,0.00,40.00,7,4,10,0.01
2013-2-15,43,28,17,15,4,-8,81,38,19,0.00,40.00,12,5,20,0.01
2013-2-16,44,32,19,13,6,-8,47,35,23,0.00,40.00,6,4,11,0.00
2013-2-17,44,33,25,11,7,2,50,34,18,0.00,40.00,13,6,21,0.00
2013-2-18,38,26,17,11,5,-2,62,40,28,0.00,40.00,10,7,21,0.00
2013-2-19,45,30,19,7,0,-9,40,27,15,0.00,40.00,9,5,17,0.00
2013-2-20,31,25,18,25,18,5,93,77,32,0.00,40.00,12,5,19,0.04
2013-2-21,30,21,15,23,16,12,92,81,66,0.00,40.00,10,5,20,0.08
2013-2-22,24,19,14,19,15,8,93,82,57,0.00,40.00,9,5,17,0.03
2013-2-23,30,20,10,18,11,5,90,70,38,0.00,40.00,7,4,12,0.08
2013-2-24,33,19,8,18,8,-1,90,64,29,0.00,40.00,11,7,20,0.11
2013-2-25,39,24,16,10,3,-4,49,40,29,0.00,40.00,12,6,16,0.01
2013-2-26,28,20,15,10,3,-9,61,49,33,0.00,40.00,12,7,21,0.00
2013-2-27,36,22,13,6,-2,-8,46,35,20,0.00,40.00,9,5,15,0.00
2013-2-28,39,25,15,9,2,-9,48,36,22,0.00,40.00,9,5,15,0.00
2013-3-1,48,34,19,18,13,3,56,42,29,0.00,40.00,7,4,12,0.00
2013-3-2,51,40,29,23,20,15,60,45,31,0.00,40.00,6,4,12,0.00
2013-3-3,47,39,34,22,19,17,52,45,34,0.00,40.00,9,5,21,0.00
2013-3-4,43,35,28,29,21,3,86,58,34,0.00,40.00,13,9,23,0.00
2013-3-5,49,34,21,12,6,-4,53,31,13,0.00,40.00,7,5,17,0.00
2013-3-6,55,41,32,21,12,1,39,30,22,0.00,40.00,9,6,19,0.00
2013-3-7,55,44,35,19,11,4,33,26,13,0.00,40.00,8,5,15,0.00
2013-3-8,42,35,26,30,18,5,95,56,24,0.00,40.00,11,6,19,0.00
2013-3-9,26,22,17,25,19,14,95,89,83,0.00,40.00,12,4,18,0.00
2013-3-10,38,30,17,25,20,14,90,68,53,0.00,40.00,7,4,14,0.35
2013-3-11,47,34,24,25,21,16,79,58,41,0.00,40.00,7,4,13,0.03
2013-3-12,52,39,28,25,21,18,68,50,32,0.00,40.00,8,4,13,0.00
2013-3-13,55,44,31,28,21,16,69,43,22,0.00,40.00,8,5,14,0.00
2013-3-14,63,49,39,20,14,7,41,25,15,0.00,40.00,11,6,16,0.00
2013-3-15,63,50,42,22,16,10,33,26,18,0.00,40.00,10,6,21,0.00
2013-3-16,54,46,40,23,17,10,46,32,23,0.00,40.00,11,6,20,0.00
2013-3-17,48,38,32,29,20,7,85,53,21,0.00,40.00,18,9,40,0.00
2013-3-18,43,36,29,9,5,2,34,27,18,0.00,40.00,17,10,36,0.00
2013-3-19,50,39,33,15,7,1,30,26,23,0.00,40.00,8,5,16,0.00
2013-3-20,49,37,28,25,14,5,61,40,26,0.00,40.00,10,5,19,0.00
2013-3-21,47,39,33,28,18,-2,77,47,21,0.00,40.00,14,8,34,0.00
2013-3-22,45,36,26,11,-1,-10,33,21,13,0.00,40.00,15,9,29,0.00
2013-3-23,34,21,14,1,-4,-13,50,33,14,0.00,40.00,17,11,30,0.00
2013-3-24,35,22,13,1,-4,-15,40,31,22,0.00,40.00,14,8,25,0.00
2013-3-25,41,26,15,3,-4,-9,40,28,14,0.00,40.00,12,6,18,0.00
2013-3-26,51,37,26,12,6,3,37,28,20,0.00,40.00,12,5,17,0.00
2013-3-27,57,44,35,15,10,6,35,25,14,0.00,40.00,8,5,20,0.00
2013-3-28,59,52,45,11,9,7,22,18,13,0.00,40.00,9,7,19,0.00
2013-3-29,58,48,40,23,16,8,40,28,22,0.00,40.00,9,5,19,0.00
2013-3-30,61,48,40,24,18,-100,43,32,21,0.00,40.00,12,6,20,0.00
2013-3-31,60,49,39,24,18,11,47,30,15,0.00,40.00,11,7,19,0.00
2013-4-1,59,48,39,27,16,4,54,30,15,0.00,40.00,12,8,23,0.00
2013-4-2,53,40,33,23,13,5,66,35,18,0.00,40.00,12,6,23,0.00
2013-4-3,56,41,29,26,20,11,75,47,24,0.00,40.00,13,5,25,0.01
2013-4-4,63,48,37,21,13,6,38,26,14,0.00,40.00,13,7,19,0.01
2013-4-5,60,50,42,19,12,6,32,22,15,0.00,40.00,11,6,23,0.00
2013-4-6,59,48,40,23,18,11,46,31,16,0.00,40.00,10,7,23,0.00
2013-4-7,58,48,40,19,15,8,40,28,19,0.00,40.00,13,8,28,0.00
2013-4-8,55,42,28,26,19,8,93,42,15,0.00,40.00,21,10,41,0.00
2013-4-9,35,29,26,33,28,25,96,95,91,0.00,40.00,16,7,24,0.17
2013-4-10,30,25,19,27,22,17,94,90,87,0.00,40.00,8,4,13,0.21
2013-4-11,50,34,20,35,25,16,92,72,52,0.00,40.00,10,5,14,0.28
2013-4-12,52,39,29,31,24,14,94,59,31,0.00,40.00,9,5,14,0.14
2013-4-13,53,45,34,23,18,12,53,35,22,0.00,40.00,11,6,25,0.00
2013-4-14,51,45,40,32,21,16,64,40,26,0.00,40.00,15,10,30,0.00
2013-4-15,57,46,37,24,20,13,53,36,22,0.00,40.00,15,11,27,0.00
2013-4-16,59,48,38,24,14,3,46,29,12,0.00,40.00,21,15,39,0.00
2013-4-17,42,32,20,27,17,-1,93,54,20,0.00,40.00,14,10,27,0.00
2013-4-18,35,24,15,9,-1,-19,77,39,9,0.00,40.00,17,7,30,0.00
2013-4-19,45,32,20,7,-3,-13,31,22,18,0.00,40.00,10,6,18,0.00
2013-4-20,50,40,33,23,17,7,54,38,26,0.00,40.00,12,8,20,0.00
2013-4-21,56,43,33,23,15,0,60,34,13,0.00,40.00,13,7,22,0.00
2013-4-22,62,50,40,19,13,9,32,23,14,0.00,40.00,17,8,34,0.00
2013-4-23,52,43,32,21,4,-23,40,22,8,0.00,40.00,15,9,27,0.00
2013-4-24,58,45,29,5,-4,-18,18,13,10,0.00,40.00,9,6,20,0.00
2013-4-25,61,47,37,34,13,-6,90,30,12,0.00,40.00,15,7,31,0.01
2013-4-26,57,45,35,34,26,16,86,52,23,0.00,40.00,12,6,18,0.01
2013-4-27,64,51,41,23,14,5,39,24,12,0.00,40.00,10,5,17,0.00
2013-4-28,68,55,45,13,9,4,20,16,11,0.00,40.00,14,7,18,0.00
2013-4-29,71,58,50,20,15,11,22,18,12,0.00,40.00,13,7,21,0.00
2013-4-30,69,63,52,19,10,5,19,13,9,0.00,40.00,13,9,30,0.00
2013-5-1,59,49,33,22,5,-20,30,17,7,0.00,40.00,15,10,31,0.00
2013-5-2,55,41,28,4,-3,-16,32,17,8,0.00,40.00,13,8,24,0.00
2013-5-3,59,44,31,9,1,-7,32,18,10,0.00,40.00,10,6,17,0.00
2013-5-4,65,52,37,9,2,-8,24,13,5,0.00,40.00,11,6,20,0.00
2013-5-5,59,49,42,26,14,4,46,25,14,0.00,40.00,13,9,26,0.00
2013-5-6,48,42,37,38,33,26,93,73,46,0.00,40.00,12,6,17,0.06
2013-5-7,62,45,35,35,26,4,95,57,13,0.00,40.00,11,7,21,0.08
2013-5-8,52,42,34,33,27,18,89,58,31,0.00,40.00,11,6,22,0.01
2013-5-9,50,38,34,35,28,22,87,68,42,0.00,40.00,14,5,20,0.01
2013-5-10,56,44,36,33,25,-100,82,53,30,0.00,40.00,11,6,23,0.01
2013-5-11,63,47,38,32,26,-100,75,48,23,0.00,40.00,11,6,26,0.01
2013-5-12,66,54,42,33,28,24,57,38,23,0.00,40.00,11,6,21,0.00
2013-5-13,76,60,50,31,27,19,40,30,14,0.00,40.00,14,6,22,0.00
2013-5-14,74,59,51,41,31,27,56,36,21,0.00,40.00,10,6,23,0.12
2013-5-15,72,57,50,41,33,6,56,43,12,0.00,40.00,19,6,34,0.11
2013-5-16,72,54,49,23,1,-100,30,18,12,0.00,40.00,9,7,19,0.00
2013-5-17,72,60,50,20,6,-100,21,14,6,0.00,40.00,14,9,23,0.00
2013-5-18,63,53,45,26,20,14,40,28,18,0.00,40.00,14,8,22,0.00
2013-5-19,59,48,41,26,22,17,48,36,22,0.00,40.00,12,9,26,0.00
2013-5-20,57,45,38,31,25,18,71,47,25,0.00,40.00,12,6,21,0.00
2013-5-21,64,52,38,32,26,19,73,40,21,0.00,40.00,12,7,24,0.00
2013-5-22,72,60,49,26,20,10,39,24,10,0.00,40.00,12,6,20,0.00
2013-5-23,77,64,53,23,14,3,20,15,7,0.00,40.00,12,8,26,0.00
2013-5-24,73,62,51,22,14,7,22,15,10,0.00,40.00,12,8,23,0.00
2013-5-25,75,64,54,15,11,3,17,13,8,0.00,40.00,11,8,21,0.00
2013-5-26,71,61,51,16,9,2,19,13,9,0.00,40.00,10,7,17,0.00
2013-5-27,68,58,47,18,9,0,19,14,10,0.00,40.00,11,7,20,0.00
2013-5-28,72,58,47,23,13,6,22,17,11,0.00,40.00,12,7,23,0.00
2013-5-29,61,51,42,36,26,10,74,42,16,0.00,40.00,13,9,24,0.00
2013-5-30,66,54,42,29,22,13,52,31,15,0.00,40.00,15,10,27,0.00
2013-5-31,68,58,51,24,14,4,24,18,11,0.00,40.00,14,10,27,0.00
2013-6-1,74,58,43,17,10,4,22,16,9,0.00,40.00,12,7,19,0.00
2013-6-2,76,63,50,31,21,8,30,21,14,0.00,40.00,11,6,21,0.00
2013-6-3,76,64,51,40,29,20,47,28,18,0.00,40.00,13,7,24,0.00
2013-6-4,80,67,55,30,24,18,29,20,13,0.00,40.00,11,7,19,0.00
2013-6-5,77,66,57,31,22,11,27,19,13,0.00,40.00,12,7,34,0.00
2013-6-6,79,64,55,29,22,12,26,21,12,0.00,40.00,10,7,28,0.00
2013-6-7,75,63,51,40,32,24,44,32,20,0.00,40.00,12,6,27,0.00
2013-6-8,83,69,53,37,30,23,41,26,13,0.00,40.00,11,6,21,0.00
2013-6-9,86,73,60,37,26,18,27,19,12,0.00,40.00,13,7,18,0.00
2013-6-10,90,76,66,39,26,14,31,16,10,0.00,40.00,11,7,21,0.00
2013-6-11,82,70,60,25,18,9,22,14,9,0.00,40.00,12,8,22,0.00
2013-6-12,83,71,61,24,18,13,19,14,9,0.00,40.00,13,7,20,0.00
2013-6-13,86,72,62,36,26,14,37,19,13,0.00,40.00,12,7,23,0.00
2013-6-14,81,68,58,40,30,16,43,27,12,0.00,40.00,12,8,24,0.00
2013-6-15,79,65,54,41,32,15,52,31,14,0.00,40.00,15,7,33,0.00
2013-6-16,80,65,53,41,34,27,48,33,16,0.00,40.00,9,6,22,0.00
2013-6-17,80,68,57,39,29,18,39,25,14,0.00,40.00,12,7,21,0.00
2013-6-18,81,68,54,45,29,5,55,28,7,0.00,40.00,11,8,21,0.00
2013-6-19,81,70,59,19,9,-2,18,10,6,0.00,40.00,12,8,24,0.00
2013-6-20,79,65,56,20,11,-1,17,12,7,0.00,40.00,10,8,21,0.00
2013-6-22,79,71,61,23,16,8,19,13,10,0.00,40.00,10,8,21,0.00
2013-6-23,79,67,54,24,14,6,20,13,7,0.00,40.00,11,7,21,0.00
2013-6-24,76,66,56,23,12,7,18,13,9,0.00,40.00,14,8,23,0.00
2013-6-25,80,66,54,30,21,11,23,18,14,0.00,40.00,13,9,22,0.00
2013-6-26,87,73,60,35,29,25,28,20,13,0.00,40.00,10,6,15,0.00
2013-6-27,93,77,66,36,28,21,25,18,8,0.00,40.00,14,6,21,0.00
2013-6-28,89,72,64,45,36,27,39,28,16,0.00,40.00,12,7,44,0.00
2013-6-29,84,69,61,43,40,36,45,36,20,0.00,40.00,14,7,23,0.00
2013-6-30,83,66,58,52,41,38,55,41,23,0.00,40.00,14,6,25,0.00
2013-7-1,81,66,53,45,40,36,62,41,22,0.00,40.00,12,7,21,0.00
2013-7-2,80,64,52,55,45,39,81,54,28,0.00,40.00,13,7,21,0.26
2013-7-3,81,63,52,51,46,40,81,56,28,0.00,40.00,15,7,27,0.44
2013-7-4,80,68,58,47,40,37,53,38,24,0.00,40.00,11,4,17,0.41
2013-7-5,81,67,57,53,45,39,80,47,26,0.00,40.00,12,6,25,0.12
2013-7-6,80,62,56,53,48,40,75,60,31,0.00,40.00,12,4,28,0.03
2013-7-7,83,70,56,52,45,39,72,44,25,0.00,40.00,12,5,18,0.03
2013-7-8,86,68,59,49,43,-100,58,43,19,0.00,40.00,15,7,27,0.00
2013-7-9,89,72,60,47,43,36,56,37,18,0.00,40.00,11,6,26,0.00
2013-7-10,88,69,57,53,42,-100,88,44,19,0.00,40.00,13,8,27,0.07
2013-7-11,83,68,59,53,48,43,64,49,30,0.00,40.00,11,6,16,0.02
2013-7-12,78,64,57,54,50,46,78,62,37,0.00,40.00,11,6,16,0.04
2013-7-13,83,66,58,55,48,41,76,56,28,0.00,40.00,20,6,27,0.05
2013-7-14,79,67,59,51,48,44,68,51,29,0.00,40.00,10,5,16,0.07
2013-7-15,72,59,54,55,52,41,100,79,45,0.00,40.00,11,6,22,0.70
2013-7-16,71,64,53,54,51,48,94,65,49,0.00,40.00,10,5,23,0.17
2013-7-17,74,62,53,53,48,42,95,64,37,0.00,40.00,14,5,21,0.30
2013-7-18,78,66,54,53,48,42,74,54,36,0.00,40.00,14,6,21,0.00
2013-7-19,80,64,58,53,49,44,72,58,34,0.00,40.00,15,6,22,0.01
2013-7-20,80,64,56,53,46,-100,75,57,35,0.00,40.00,11,4,23,0.60
2013-7-21,81,64,57,52,46,38,67,52,29,0.00,40.00,16,6,27,0.02
2013-7-22,85,68,58,53,45,37,61,45,23,0.00,40.00,12,5,25,0.00
2013-7-23,81,69,61,52,43,38,52,40,26,0.00,40.00,10,4,23,0.00
2013-7-24,83,67,54,53,43,38,93,47,22,0.00,40.00,15,6,37,0.05
2013-7-25,81,65,53,55,50,44,90,62,30,0.00,40.00,13,4,19,0.05
2013-7-26,80,64,55,52,48,43,81,58,37,0.00,40.00,13,8,20,0.08
2013-7-27,80,64,54,53,48,40,86,59,33,0.00,40.00,12,6,22,0.01
2013-7-28,64,56,52,59,53,48,100,90,76,0.00,40.00,8,6,15,0.47
2013-7-29,75,62,53,54,47,39,85,61,30,0.00,40.00,11,5,21,0.01
2013-7-30,81,70,58,49,40,32,56,36,20,0.00,40.00,12,6,16,0.00
2013-7-31,86,72,61,40,35,29,37,26,17,0.00,40.00,9,6,16,0.00
2013-8-1,72,61,54,56,47,29,97,64,22,0.00,40.00,13,6,20,0.04
2013-8-2,81,62,51,54,49,44,99,66,34,0.00,40.00,20,7,27,0.18
2013-8-3,77,63,51,57,49,43,99,63,36,0.00,40.00,11,7,21,0.44
2013-8-4,83,67,54,53,46,40,93,48,25,0.00,40.00,17,7,26,0.02
2013-8-5,79,64,52,55,49,41,98,62,33,0.00,40.00,17,6,24,0.02
2013-8-6,78,62,52,52,47,43,99,60,30,0.00,40.00,14,6,21,0.11
2013-8-7,68,55,49,57,49,42,99,80,58,0.00,40.00,11,5,20,1.70
2013-8-8,60,52,49,54,47,42,98,83,63,0.00,40.00,14,6,22,0.43
2013-8-9,76,60,50,46,41,36,71,50,27,0.00,40.00,10,4,16,0.01
2013-8-10,76,58,47,51,44,33,93,63,33,0.00,40.00,25,6,38,0.28
2013-8-11,74,60,47,49,42,37,85,54,27,0.00,40.00,8,4,15,0.01
2013-8-12,75,62,54,52,44,38,71,53,37,0.00,40.00,7,4,20,0.00
2013-8-13,78,64,54,51,40,-100,69,45,21,0.00,40.00,7,5,19,0.00
2013-8-14,78,66,57,45,37,32,44,34,23,0.00,40.00,11,6,19,0.00
2013-8-15,81,66,58,44,28,-100,48,28,18,0.00,40.00,7,5,19,0.00
2013-8-16,84,71,62,41,28,-100,32,21,14,0.00,40.00,9,5,16,0.00
2013-8-17,83,68,59,45,35,-100,42,31,21,0.00,40.00,10,6,20,0.00
2013-8-18,82,66,54,49,44,37,68,47,26,0.00,40.00,9,6,16,0.00
2013-8-19,83,63,58,49,39,-100,57,46,27,0.00,40.00,10,6,24,0.00
2013-8-20,81,66,57,50,44,38,64,46,24,0.00,40.00,14,5,23,0.00
2013-8-21,84,65,55,52,45,39,84,49,27,0.00,40.00,18,7,28,0.02
2013-8-22,80,68,55,51,45,41,84,46,27,0.00,40.00,18,6,26,0.01
2013-8-23,83,68,57,46,40,28,59,39,18,0.00,40.00,10,7,21,0.00
2013-8-24,72,59,51,56,47,-100,98,65,46,0.00,40.00,10,6,17,0.28
2013-8-25,64,56,51,59,54,50,100,94,71,0.00,40.00,10,5,19,0.68
2013-8-26,76,64,53,57,52,46,100,69,39,0.00,40.00,7,3,11,0.58
2013-8-27,76,64,57,54,50,47,71,62,45,0.00,40.00,12,6,20,0.01
2013-8-28,80,73,62,54,47,43,57,42,27,0.00,40.00,8,6,14,0.00
2013-8-29,82,67,58,52,47,44,65,51,29,0.00,40.00,12,6,20,0.00
2013-8-30,85,71,58,52,46,41,67,42,25,0.00,40.00,10,5,16,0.00
2013-8-31,83,69,59,51,44,-100,63,44,28,0.00,40.00,15,7,20,0.00
2013-9-1,84,69,58,50,45,41,65,44,24,0.00,40.00,12,7,26,0.00
2013-9-2,80,66,57,51,46,40,73,51,26,0.00,40.00,8,5,15,0.00
2013-9-3,80,66,58,52,48,44,66,53,31,0.00,40.00,12,6,17,0.01
2013-9-4,84,70,59,51,47,38,70,47,27,0.00,40.00,10,5,21,0.01
2013-9-5,85,70,59,47,39,30,57,35,19,0.00,40.00,10,6,16,0.00
2013-9-6,83,72,59,39,35,29,36,27,19,0.00,40.00,9,5,15,0.00
2013-9-7,83,69,59,43,36,-100,46,30,20,0.00,40.00,10,6,19,0.00
2013-9-8,78,66,56,49,43,37,63,45,27,0.00,40.00,9,5,21,0.00
2013-9-9,69,59,52,53,49,44,97,71,46,0.00,40.00,9,5,17,0.21
2013-9-10,61,53,51,56,51,47,100,92,81,0.00,40.00,11,5,19,1.31
2013-9-11,71,58,51,58,51,45,100,80,47,0.00,40.00,8,3,12,0.39
2013-9-12,69,58,52,53,50,45,98,77,50,0.00,40.00,11,6,17,0.07
2013-9-13,64,54,49,54,51,48,99,89,66,0.00,40.00,10,6,16,0.27
2013-9-14,65,52,47,53,46,-100,98,84,64,0.00,40.00,16,4,28,0.05
2013-9-15,71,55,46,50,44,41,91,70,39,0.00,40.00,13,3,17,0.12
2013-9-16,70,57,50,50,46,43,88,68,40,0.00,40.00,8,4,14,0.12
2013-9-17,71,60,51,52,47,43,87,66,41,0.00,40.00,12,6,17,0.00
2013-9-18,57,52,48,51,49,45,98,90,69,0.00,40.00,10,7,21,0.75
2013-9-19,71,58,48,54,43,29,91,63,32,0.00,40.00,8,5,14,0.32
2013-9-20,71,63,50,41,35,28,56,37,26,0.00,40.00,7,5,14,0.00
2013-9-21,74,59,50,50,41,-100,85,56,29,0.00,40.00,12,6,26,0.00
2013-9-22,57,48,38,53,45,36,98,89,73,0.00,40.00,15,7,33,0.77
2013-9-23,60,46,35,42,34,31,92,67,35,0.00,40.00,13,6,25,0.16
2013-9-24,67,59,45,38,32,25,60,37,22,0.00,40.00,10,4,14,0.00
2013-9-25,68,59,45,36,29,21,51,33,23,0.00,40.00,16,11,26,0.00
2013-9-26,67,56,46,28,22,18,38,27,16,0.00,40.00,16,10,28,0.00
2013-9-27,54,42,34,41,32,20,98,74,36,0.00,40.00,12,8,22,0.28
2013-9-28,56,41,29,29,20,-100,64,45,30,0.00,40.00,9,5,16,0.02
2013-9-29,62,53,39,32,23,11,51,33,20,0.00,40.00,12,6,17,0.00
2013-9-30,67,59,46,29,23,13,31,25,22,0.00,40.00,9,5,13,0.00
2013-10-1,62,57,52,20,17,16,27,21,20,0.00,40.00,8,7,14,0.00
2013-10-2,67,59,49,29,20,12,29,23,18,0.00,40.00,9,6,15,0.00
2013-10-3,62,54,44,32,25,16,45,33,23,0.00,40.00,12,7,22,0.00
2013-10-4,50,38,27,25,17,7,77,45,19,0.00,40.00,15,8,26,0.00
2013-10-5,52,37,27,19,14,6,63,40,26,0.00,40.00,10,6,17,0.00
2013-10-6,62,49,33,24,19,15,50,32,22,0.00,40.00,8,6,15,0.00
2013-10-7,67,59,46,24,19,14,34,21,14,0.00,40.00,6,5,12,0.00
2013-10-8,64,57,45,25,22,15,32,26,21,0.00,40.00,9,6,19,0.00
2013-10-9,63,52,42,34,23,18,62,34,22,0.00,40.00,10,7,39,0.00
2013-10-10,47,37,28,32,30,23,98,79,51,0.00,40.00,15,9,39,0.11
2013-10-11,37,32,29,34,31,28,98,95,89,0.00,40.00,7,4,12,0.37
2013-10-12,54,41,32,33,27,-100,92,62,33,0.00,40.00,8,4,14,0.03
2013-10-13,59,48,40,36,31,25,63,51,39,0.00,40.00,17,9,31,0.00
2013-10-14,49,41,34,29,24,20,73,52,39,0.00,40.00,11,7,22,0.00
2013-10-15,52,40,31,28,21,16,72,48,28,0.00,40.00,10,6,16,0.00
2013-10-16,46,35,29,35,25,15,98,71,36,0.00,40.00,9,5,15,0.05
2013-10-17,50,38,29,25,18,11,64,45,31,0.00,40.00,9,5,15,0.05
2013-10-18,50,41,31,19,12,6,47,31,21,0.00,40.00,10,6,17,0.00
2013-10-19,52,40,31,18,10,-100,39,30,22,0.00,40.00,7,5,12,0.00
2013-10-20,57,44,33,23,17,12,48,33,23,0.00,40.00,12,6,20,0.00
2013-10-21,57,46,36,20,15,12,39,29,20,0.00,40.00,9,6,16,0.00
2013-10-22,60,49,37,20,15,12,39,27,17,0.00,40.00,8,5,16,0.00
2013-10-23,64,53,41,21,15,11,33,23,15,0.00,40.00,7,5,12,0.00
2013-10-24,65,54,44,25,18,13,46,25,17,0.00,40.00,13,6,21,0.00
2013-10-25,54,42,37,43,36,25,96,81,46,0.00,40.00,14,6,25,0.17
2013-10-26,60,45,36,39,31,-100,96,64,32,0.00,40.00,9,6,15,0.02
2013-10-27,56,47,38,36,29,22,72,50,31,0.00,40.00,10,5,15,0.00
2013-10-28,56,45,40,29,22,-100,65,44,24,0.00,40.00,12,9,24,0.00
2013-10-29,47,40,30,31,23,15,98,52,32,0.00,40.00,13,9,24,0.01
2013-10-30,38,30,25,34,27,23,98,89,56,0.00,40.00,10,4,17,0.12
2013-10-31,41,28,21,27,22,19,97,77,55,0.00,40.00,7,4,14,0.11
2013-11-1,47,35,26,27,23,20,82,61,42,0.00,40.00,7,4,14,0.01
2013-11-2,57,45,34,22,17,-100,59,36,23,0.00,40.00,10,5,15,0.00
2013-11-3,52,41,31,33,21,12,96,46,32,0.00,40.00,12,7,19,0.00
2013-11-4,49,40,31,28,20,12,79,47,29,0.00,40.00,10,5,21,0.00
2013-11-5,37,29,22,30,19,6,98,70,37,0.00,40.00,9,6,19,0.07
2013-11-6,42,29,19,14,10,5,66,45,31,0.00,40.00,6,4,10,0.01
2013-11-7,54,43,29,18,13,7,45,30,23,0.00,40.00,8,4,12,0.00
2013-11-8,54,44,33,18,14,10,40,30,24,0.00,40.00,7,4,14,0.00
2013-11-9,57,46,36,19,13,-100,41,28,22,0.00,40.00,7,5,12,0.00
2013-11-10,59,50,39,18,14,11,35,24,17,0.00,40.00,8,5,14,0.00
2013-11-11,60,50,40,19,14,10,35,24,15,0.00,40.00,8,4,13,0.00
2013-11-12,59,51,40,23,14,10,51,24,16,0.00,40.00,8,6,12,0.00
2013-11-13,52,45,38,24,22,21,53,40,29,0.00,40.00,6,4,11,0.00
2013-11-14,52,40,33,26,22,18,68,49,33,0.00,40.00,9,5,15,0.00
2013-11-15,42,35,31,33,24,16,98,68,44,0.00,40.00,14,7,26,0.03
2013-11-16,36,32,30,34,29,-100,99,89,74,0.00,40.00,13,8,26,0.18
2013-11-17,47,35,28,31,27,23,95,74,51,0.00,40.00,15,7,28,0.02
2013-11-18,47,37,29,28,24,20,83,61,42,0.00,40.00,7,4,10,0.01
2013-11-19,47,40,33,29,24,20,61,53,40,0.00,40.00,9,5,13,0.00
2013-11-20,46,37,31,32,27,23,99,70,48,0.00,40.00,9,5,15,0.00
2013-11-21,36,32,30,36,32,30,100,99,99,0.00,40.00,11,5,15,0.23
2013-11-22,32,31,30,32,31,30,100,99,99,0.00,40.00,5,0,9,0.01
2013-11-23,35,31,27,33,29,-100,100,98,93,0.00,40.00,0,0,0,0.10
2013-11-24,27,23,18,27,21,16,99,94,87,0.00,40.00,6,2,9,0.01
2013-11-25,33,22,17,30,20,15,96,93,83,0.00,40.00,4,2,8,0.23
2013-11-26,33,23,19,28,21,18,96,93,83,0.00,40.00,5,2,7,0.17
2013-11-27,41,29,22,32,26,21,97,88,70,0.00,40.00,6,3,7,0.43
2013-11-28,48,36,28,26,21,16,86,58,32,0.00,40.00,7,4,11,0.04
2013-11-29,47,35,28,26,21,17,72,58,36,0.00,40.00,5,4,9,0.00
2013-11-30,47,35,29,28,22,-100,81,63,45,0.00,40.00,6,4,11,0.00
2013-12-1,33,26,22,28,24,21,96,93,81,0.00,40.00,6,3,10,0.00
2013-12-2,29,24,21,26,22,20,96,94,90,0.00,40.00,6,3,12,0.00
2013-12-3,44,32,23,26,22,19,94,68,48,0.00,40.00,15,6,24,0.00
2013-12-4,33,23,11,26,17,0,95,76,56,0.00,40.00,17,12,32,0.00
2013-12-5,21,13,9,13,6,0,87,72,54,0.00,40.00,9,5,15,0.00
2013-12-6,17,12,8,12,4,-1,86,72,59,0.00,40.00,8,5,14,0.00
2013-12-7,24,16,10,17,6,-100,93,67,43,0.00,40.00,9,6,20,0.00
2013-12-8,18,11,4,16,7,-1,92,85,78,0.00,40.00,14,9,26,0.00
2013-12-9,16,7,1,7,0,-4,80,72,63,0.00,40.00,8,5,14,0.03
2013-12-10,26,13,3,11,3,-3,79,63,51,0.00,40.00,8,4,10,0.10
2013-12-11,36,25,13,11,6,2,64,45,34,0.00,40.00,6,4,9,0.06
2013-12-12,47,37,25,13,4,-2,45,26,14,0.00,40.00,8,4,12,0.01
2013-12-13,36,26,19,20,14,5,87,60,32,0.00,40.00,8,4,11,0.01
2013-12-14,39,26,20,16,10,-100,78,56,35,0.00,40.00,12,5,20,0.00
2013-12-15,40,28,18,21,16,11,80,62,44,0.00,40.00,6,3,9,0.00
2013-12-16,44,35,25,22,18,14,71,51,41,0.00,40.00,7,4,10,0.00
2013-12-17,54,41,30,19,16,7,54,37,24,0.00,40.00,5,3,9,0.00
2013-12-18,51,39,34,18,14,10,47,37,27,0.00,40.00,9,4,14,0.00
2013-12-19,44,35,29,21,15,8,62,44,34,0.00,40.00,11,6,19,0.00
2013-12-20,37,29,24,31,23,18,93,80,62,0.00,40.00,8,5,14,0.02
2013-12-21,25,22,19,23,19,-100,96,91,82,0.00,40.00,6,4,10,0.02
2013-12-22,32,21,14,19,12,4,94,68,46,0.00,40.00,7,4,13,0.00
2013-12-23,35,22,14,16,11,8,86,63,42,0.00,40.00,7,4,10,0.00
2013-12-24,39,27,20,20,15,9,77,61,45,0.00,40.00,9,4,14,0.00
2013-12-25,40,30,22,15,8,-2,56,41,30,0.00,40.00,8,3,12,0.00
2013-12-26,42,32,23,14,11,7,52,42,32,0.00,40.00,7,4,10,0.00
2013-12-27,45,37,28,15,11,7,48,35,26,0.00,40.00,6,4,11,0.00
2013-12-28,41,32,26,17,12,-100,61,47,35,0.00,40.00,6,3,9,0.00
2013-12-29,40,28,22,21,16,13,76,60,41,0.00,40.00,9,5,12,0.00
2013-12-30,39,26,18,19,15,12,87,66,41,0.00,40.00,5,3,10,0.00
2013-12-31,40,30,22,16,14,11,66,52,38,0.00,40.00,6,3,10,0.00
2014-1-1,44,33,25,20,13,-4,66,46,21,0.00,40.00,10,4,14,0.00
2014-1-2,44,32,22,16,9,4,58,39,28,0.00,40.00,5,3,9,0.00